Upstream stations:
Downstream station:
SHEF ID: MTCO2 Tar Creek at 22nd Street Bridge
STATION TYPE:
PRECIP STAGE STAGE(2) RIV-FLOW BAT-LOAD
in ft ft cfs volt
Ccp-Rev Ccp-Rev Ccp-Rev Ccp-Rev Ccp-Rev
(US/Central)
03/29 00:00 0.00 3.99 4.02 17 12.33
03/29 01:00 0.00 3.99 4.02 17 12.33
03/29 02:00 0.00 4.01 4.04 18 12.33
03/29 03:00 0.00 4.01 4.03 18 12.25
03/29 04:00 0.00 4.00 4.04 18 12.17
03/29 05:00 0.00 4.00 4.03 18 12.25
03/29 06:00 0.00 4.00 4.03 18 12.17
03/29 07:00 0.00 4.00 4.03 18 12.17
03/29 08:00 0.00 4.00 4.02 18 12.17
03/29 09:00 0.00 3.99 4.03 17 12.17
03/29 10:00 0.00 3.98 4.03 16 12.57
03/29 11:00 0.00 3.99 4.02 17 13.05
03/29 12:00 0.00 3.98 4.02 16 ----
03/29 13:00 0.00 3.98 4.01 16 13.05
03/29 14:00 0.00 3.96 4.02 15 13.05
03/29 15:00 0.00 3.97 4.02 16 12.97
03/29 16:00 0.00 3.98 4.00 16 12.89
03/29 17:00 0.00 3.97 4.00 16 12.97
03/29 18:00 0.00 3.96 3.99 15 12.97
03/29 19:00 0.00 3.96 3.99 15 13.21
03/29 20:00 0.00 3.95 3.99 15 12.81
03/29 21:00 0.00 3.96 4.00 15 12.49
03/29 22:00 0.00 3.97 4.01 16 12.41
03/29 23:00 0.00 3.99 4.02 17 12.41